[[{"header":{"parameterUnit":"m.s-1","parameterCategory":1,"la1":30.2991,"la2":30.254,"lo1":-89.0895,"lo2":-89.0444,"dy":0.0017,"dx":0.0017,"nx":28,"ny":28,"refTime":"2025-03-20T21:00:00:Z","depth":0,"parameterNumber":2,"parameterNumberName":"U-component_of_WINDS"},"data":[0,0,0,0,0,0,0,0,0,0,0,0,0,0,0,0,0,0,0,0,0,0,0,0,0,0,0,0,0,0,0,0,0,0,0,0,0,0,0,0,0,0,0,0,0,0,0,0,0,0,0,0,0,0,0,0,0,0,-1.9165,-1.9165,0,-1.9202,-1.9203,-1.9203,-1.9102,-1.9099,-1.9096,-1.9093,-1.9134,-1.9138,-1.9142,0,0,0,0,0,0,0,0,0,0,0,0,0,-1.9005,-1.9009,-1.9164,-1.9165,-1.9165,-1.9202,-1.9203,-1.9203,-1.9103,-1.9099,-1.9095,-1.9091,-1.9133,-1.9138,-1.9143,0,0,0,0,0,0,0,0,0,0,0,0,0,-1.9062,-1.901,-1.9164,-1.912,-1.9116,-1.9202,-1.9203,-1.9203,-1.9103,-1.9099,-1.9094,-1.909,-1.9132,-1.9137,-1.9143,-1.9276,0,0,-1.9162,-1.9165,0,0,0,0,0,0,0,0,-1.9059,-1.9068,-1.9126,-1.9123,-1.9119,-1.9143,-1.9162,-1.9228,-1.9105,-1.9108,-1.9093,-1.9087,-1.9141,-1.9146,-1.9164,-1.9278,-1.928,-1.9163,-1.9166,-1.9169,-1.9171,0,0,0,0,0,0,0,-1.9055,-1.9066,-1.9179,-1.9127,-1.9122,-1.9098,-1.91,-1.9174,-1.9151,-1.9108,-1.91,-1.9106,-1.9138,-1.9158,-1.9164,-1.928,-1.9162,-1.9168,-1.9172,-1.9174,-1.9501,-1.9506,0,0,0,0,0,0,-1.9057,-1.9063,-1.9178,-1.9181,-1.9077,-1.9104,-1.9107,-1.914,-1.915,-1.9147,-1.911,-1.9101,-1.915,-1.9157,-1.9165,-1.9318,-1.9169,-1.9175,-1.9178,-1.9496,-1.9502,-1.9508,0,0,0,0,0,0,-1.9054,-1.9068,-1.9177,-1.912,-1.9132,-1.9112,-1.9149,-1.9143,-1.9163,-1.9152,-1.9147,-1.9134,-1.9147,-1.9157,-1.9248,-1.9318,-1.9177,-1.9183,-1.949,-1.9498,-1.9505,-1.9627,0,0,0,0,0,0,-1.905,-1.9068,-1.9118,-1.9122,-1.9135,-1.9259,-1.9154,-1.9147,-1.9173,-1.9162,-1.9173,-1.9171,-1.9144,-1.9239,-1.9254,-1.9324,-1.9188,-1.9484,-1.9493,-1.9502,-1.9617,-1.9638,-1.9656,0,0,0,0,0,-1.9044,-1.9152,-1.9121,-1.9135,-1.9198,-1.9264,-1.9271,-1.9237,-1.9179,-1.9229,-1.9221,-1.917,-1.9308,-1.925,-1.9265,-1.9338,-1.9479,-1.9491,-1.9502,-1.9608,-1.9634,-1.9655,0,0,0,0,0,0,-1.9159,-1.9152,-1.9117,-1.923,-1.9248,-1.9246,-1.9309,-1.9266,-1.9302,-1.929,-1.9247,-1.9251,-1.935,-1.9353,-1.9288,-1.9465,-1.9384,-1.9399,-1.9459,-1.9484,-1.9503,-1.9499,-1.9193,0,0,0,0,0,-1.9197,-1.9251,-1.9242,-1.9342,-1.9353,-1.9329,-1.9357,-1.9329,-1.9346,-1.9354,-1.9353,-1.9373,-1.9419,-1.9452,-1.9495,-1.9617,-1.9616,-1.9674,-1.9694,-1.971,-1.9723,-1.9785,-1.981,-1.9545,-1.9545,-1.9544,0,0,-1.9277,-1.928,-1.9317,-1.9365,-1.9376,-1.9432,-1.9337,-1.9401,-1.9442,-1.9364,-1.9449,-1.9449,-1.9468,-1.9574,-1.9621,-1.958,-1.9796,-1.9725,-1.9738,-1.9742,-1.9799,-1.9824,-1.9846,-1.9552,-1.9551,-1.955,0,0,-1.945,-1.9459,-1.9541,-1.9553,-1.9569,-1.9553,-1.9573,-1.9577,-1.9574,-1.9658,-1.96,-1.9648,-1.9732,-1.9746,-1.9765,-1.9941,-1.9894,-1.9956,-2.0059,-2.0119,-2.014,-2.0158,-2.0218,-2.0241,-1.9969,-1.997,-1.997,0,-1.9547,-1.9629,-1.9589,-1.9656,-1.9678,-1.9608,-1.9691,-1.9705,-1.9736,-1.9752,-1.9706,-1.9806,-1.9814,-1.9921,-1.9964,-1.9982,-2.0002,-1.9954,-2.014,-2.0158,-2.0174,-2.0231,-2.0254,-1.9977,-1.9976,-1.9975,-1.9975,0,-1.9746,-1.9804,-1.9869,-1.9897,-1.9927,-2.0002,-1.9973,-2.0007,-1.9976,-1.9964,-2.005,-2.0057,-2.0098,-2.0122,-2.0094,-2.0225,-2.0198,-2.0147,-2.0064,-2.0207,-2.026,-2.0282,-1.9987,-1.9985,-1.9983,-1.9981,0,0,-1.9994,-1.9997,-2.0022,-2.0032,-2.0044,-2.0088,-2.0159,-2.0198,-2.0228,-2.0251,-2.0308,-2.0379,-2.033,-2.0351,-2.0323,-2.0377,-2.0512,-2.0318,-2.0317,-2.0352,-2.0654,-2.0691,-2.0717,-2.0481,-2.0485,-2.0489,-2.0652,0,-2.0163,-2.0283,-2.0248,-2.0368,-2.0419,-2.0352,-2.0414,-2.0428,-2.0418,-2.046,-2.045,-2.0499,-2.0432,-2.0444,-2.0494,-2.0485,-2.0572,-2.0473,-2.0533,-2.0536,-2.0529,-2.0745,-2.0786,-2.0939,-2.0672,-2.0676,-2.0678,0,-2.0377,-2.0405,-2.053,-2.053,-2.055,-2.0606,-2.0637,-2.0679,-2.0693,-2.0682,-2.0704,-2.0664,-2.0733,-2.065,-2.0743,-2.0677,-2.0699,-2.0699,-2.0704,-2.0707,-2.0615,-2.0753,-2.0988,-2.101,-2.0711,-2.0708,-2.0706,0,-2.0541,-2.0612,-2.0694,-2.0706,-2.0709,-2.0749,-2.0753,-2.0762,-2.0786,-2.0814,-2.083,-2.0866,-2.0886,-2.0915,-2.0885,-2.0828,-2.0982,-2.0898,-2.0974,-2.0975,-2.1008,-2.1006,-2.1249,-2.1027,-2.1026,-2.1026,-2.1025,0,-2.0733,-2.0811,-2.0768,-2.0819,-2.0904,-2.0863,-2.0949,-2.0945,-2.0952,-2.1001,-2.0946,-2.0993,-2.0952,-2.0995,-2.0973,-2.1052,-2.1062,-2.1054,-2.1047,-2.1058,-2.1059,-2.1071,-2.1059,-2.1032,-2.103,-2.1029,-2.1028,0,-2.0931,-2.0906,-2.0991,-2.0986,-2.0986,-2.1049,-2.1045,-2.1091,-2.1077,-2.1139,-2.1151,-2.1129,-2.1176,-2.1149,-2.1199,-2.1184,-2.1285,-2.1265,-2.128,-2.1274,-2.1351,-2.1343,-2.1608,-2.1639,-2.1399,-2.1402,-2.1404,0,-2.1054,-2.1112,-2.1113,-2.114,-2.1146,-2.1193,-2.1216,-2.1178,-2.1205,-2.1223,-2.1267,-2.131,-2.1341,-2.142,-2.1408,-2.1445,-2.1424,-2.1514,-2.1429,-2.1437,-2.1422,-2.1418,-2.1422,-2.1531,-2.1533,-2.1536,-2.1538,0,-2.1274,-2.1257,-2.1294,-2.1325,-2.1355,-2.1378,-2.1397,-2.1423,-2.1384,-2.1418,-2.1464,-2.1489,-2.1538,-2.158,-2.1611,-2.1614,-2.1569,-2.1564,-2.1583,-2.1594,-2.16,-2.1595,-2.1325,-2.1558,-2.1556,-2.1555,-2.1554,-2.1553,-2.1437,-2.1484,-2.149,-2.1532,-2.1541,-2.156,-2.1602,-2.1591,-2.1629,-2.1665,-2.164,-2.1695,-2.1704,-2.1741,-2.175,-2.1791,-2.1755,-2.1784,-2.179,-2.1797,-2.1806,-2.1595,-2.1797,-2.1797,-2.1796,-2.1796,-2.1795,0,-2.1651,-2.1651,-2.169,-2.1716,-2.1749,-2.1702,-2.172,-2.175,-2.1798,-2.1811,-2.1842,-2.1895,-2.1934,-2.1925,-2.1961,-2.1996,-2.1976,-2.2006,-2.2002,-2.2003,-2.1838,-2.1817,-2.2021,-2.2021,-2.2021,-2.2021,-2.2021,-2.2021,-2.1767,-2.1843,-2.1827,-2.1907,-2.1907,-2.1959,-2.1972,-2.1988,-2.1997,-2.2058,-2.209,-2.2083,-2.2086,-2.2121,-2.2155,-2.2151,-2.2166,-2.2203,-2.2192,-2.2038,-2.2015,-2.1994,-2.1973,-2.2207,-2.2208,-2.2352,-2.2354,-2.2355]},{"header":{"parameterUnit":"m.s-1","parameterCategory":1,"la1":30.2991,"la2":30.254,"lo1":-89.0895,"lo2":-89.0444,"dy":0.0017,"dx":0.0017,"nx":28,"ny":28,"refTime":"2025-03-20T21:00:00:Z","depth":0,"parameterNumber":3,"parameterNumberName":"V-component_of_WINDS"},"data":[0,0,0,0,0,0,0,0,0,0,0,0,0,0,0,0,0,0,0,0,0,0,0,0,0,0,0,0,0,0,0,0,0,0,0,0,0,0,0,0,0,0,0,0,0,0,0,0,0,0,0,0,0,0,0,0,0,0,-3.5825,-3.5826,0,-3.5905,-3.5906,-3.5907,-3.5849,-3.5846,-3.5843,-3.5841,-3.5921,-3.5925,-3.593,0,0,0,0,0,0,0,0,0,0,0,0,0,-3.5619,-3.5623,-3.5825,-3.5826,-3.5827,-3.5905,-3.5906,-3.5907,-3.5849,-3.5846,-3.5843,-3.584,-3.5919,-3.5925,-3.593,0,0,0,0,0,0,0,0,0,0,0,0,0,-3.5705,-3.5625,-3.5825,-3.5808,-3.5807,-3.5905,-3.5906,-3.5907,-3.585,-3.5846,-3.5842,-3.5838,-3.5918,-3.5924,-3.5931,-3.605,0,0,-3.5952,-3.5955,0,0,0,0,0,0,0,0,-3.57,-3.5712,-3.5809,-3.5809,-3.5808,-3.5863,-3.5862,-3.5955,-3.5851,-3.5833,-3.5841,-3.5836,-3.5905,-3.5912,-3.5936,-3.6053,-3.6057,-3.5952,-3.5956,-3.5959,-3.5961,0,0,0,0,0,0,0,-3.5694,-3.5709,-3.5857,-3.5811,-3.581,-3.5795,-3.5803,-3.588,-3.5889,-3.5835,-3.583,-3.5841,-3.5904,-3.5929,-3.5937,-3.6058,-3.5952,-3.5958,-3.5962,-3.5965,-3.6275,-3.6278,0,0,0,0,0,0,-3.569,-3.5704,-3.5854,-3.5859,-3.5744,-3.5802,-3.581,-3.5849,-3.5888,-3.5891,-3.5844,-3.5838,-3.5919,-3.5929,-3.594,-3.6079,-3.5959,-3.5966,-3.5969,-3.627,-3.6275,-3.628,0,0,0,0,0,0,-3.5686,-3.5704,-3.5851,-3.578,-3.5798,-3.5809,-3.5853,-3.5853,-3.5878,-3.5896,-3.5897,-3.5869,-3.5917,-3.593,-3.6022,-3.6081,-3.5969,-3.5975,-3.6265,-3.6272,-3.6278,-3.6361,0,0,0,0,0,0,-3.568,-3.5703,-3.5749,-3.5782,-3.5802,-3.5933,-3.5857,-3.5857,-3.589,-3.5883,-3.5919,-3.5921,-3.5915,-3.6012,-3.6029,-3.6089,-3.598,-3.626,-3.6268,-3.6276,-3.6353,-3.637,-3.6384,0,0,0,0,0,-3.5673,-3.577,-3.5752,-3.577,-3.586,-3.5937,-3.5948,-3.5939,-3.5895,-3.5941,-3.5952,-3.592,-3.6073,-3.6022,-3.6041,-3.6103,-3.6256,-3.6266,-3.6275,-3.6347,-3.6367,-3.6383,0,0,0,0,0,0,-3.5743,-3.5774,-3.5754,-3.5864,-3.5899,-3.5927,-3.5985,-3.5961,-3.6008,-3.5999,-3.5986,-3.5994,-3.6091,-3.6106,-3.605,-3.6219,-3.6157,-3.6171,-3.6205,-3.6224,-3.6239,-3.6233,-3.5986,0,0,0,0,0,-3.5772,-3.5832,-3.5855,-3.595,-3.5968,-3.5974,-3.6007,-3.5997,-3.6032,-3.6046,-3.6063,-3.6098,-3.6153,-3.6189,-3.6241,-3.6355,-3.6361,-3.6407,-3.6422,-3.6435,-3.6446,-3.6506,-3.6526,-3.6311,-3.6311,-3.631,0,0,-3.5831,-3.5855,-3.5894,-3.5965,-3.599,-3.6052,-3.5986,-3.6055,-3.6101,-3.6056,-3.6144,-3.6158,-3.6195,-3.6298,-3.6344,-3.6314,-3.6507,-3.6447,-3.6456,-3.6461,-3.6517,-3.6538,-3.6556,-3.6317,-3.6316,-3.6315,0,0,-3.597,-3.5995,-3.6076,-3.6102,-3.6141,-3.6144,-3.6163,-3.6195,-3.6203,-3.6291,-3.6258,-3.6311,-3.6408,-3.6435,-3.6461,-3.6609,-3.6581,-3.6626,-3.6705,-3.6763,-3.678,-3.6795,-3.6846,-3.6865,-3.6638,-3.6638,-3.6638,0,-3.6038,-3.6131,-3.612,-3.6191,-3.6222,-3.6185,-3.6266,-3.6292,-3.6346,-3.6368,-3.6333,-3.6451,-3.6474,-3.6582,-3.6618,-3.6641,-3.6661,-3.6622,-3.6779,-3.6794,-3.6807,-3.6856,-3.6875,-3.6643,-3.6642,-3.6642,-3.6641,0,-3.6212,-3.6277,-3.6338,-3.6391,-3.6429,-3.6505,-3.6504,-3.6543,-3.653,-3.6536,-3.6625,-3.665,-3.6706,-3.6731,-3.6718,-3.6836,-3.6816,-3.6781,-3.6718,-3.6833,-3.6878,-3.6897,-3.665,-3.6649,-3.6647,-3.6646,0,0,-3.6399,-3.6443,-3.6466,-3.6488,-3.6528,-3.6578,-3.6651,-3.6705,-3.6739,-3.6777,-3.6837,-3.6918,-3.6885,-3.6915,-3.6905,-3.6956,-3.7069,-3.6914,-3.6914,-3.6941,-3.7199,-3.7225,-3.7247,-3.7051,-3.7054,-3.7057,-3.7195,0,-3.6539,-3.6667,-3.6658,-3.6778,-3.6837,-3.6801,-3.6864,-3.6895,-3.6902,-3.6952,-3.6959,-3.7016,-3.6969,-3.6986,-3.7035,-3.7045,-3.7121,-3.7035,-3.7105,-3.7108,-3.7096,-3.7271,-3.7299,-3.7428,-3.7213,-3.7216,-3.7218,0,-3.672,-3.6764,-3.689,-3.6919,-3.6943,-3.7,-3.7048,-3.7097,-3.713,-3.7131,-3.7164,-3.7145,-3.7217,-3.7154,-3.7252,-3.7194,-3.7222,-3.7231,-3.7235,-3.7241,-3.717,-3.728,-3.747,-3.7489,-3.7247,-3.7244,-3.7242,0,-3.6841,-3.6932,-3.7018,-3.7039,-3.7076,-3.7116,-3.7133,-3.7163,-3.7195,-3.7237,-3.7258,-3.7308,-3.7335,-3.7373,-3.7368,-3.7322,-3.7467,-3.7403,-3.7469,-3.7469,-3.7501,-3.7499,-3.7697,-3.7521,-3.752,-3.752,-3.752,0,-3.6998,-3.7076,-3.7073,-3.7127,-3.7212,-3.7201,-3.7286,-3.7298,-3.7324,-3.7378,-3.735,-3.7401,-3.7391,-3.7441,-3.7437,-3.7518,-3.7531,-3.7533,-3.7531,-3.7535,-3.7535,-3.7553,-3.7543,-3.7525,-3.7524,-3.7523,-3.7522,0,-3.7148,-3.715,-3.7241,-3.7268,-3.7276,-3.7338,-3.736,-3.741,-3.7414,-3.7483,-3.7498,-3.7504,-3.7562,-3.756,-3.7626,-3.7623,-3.7722,-3.771,-3.7711,-3.7709,-3.7774,-3.7768,-3.799,-3.8018,-3.7825,-3.7826,-3.7828,0,-3.7248,-3.7307,-3.734,-3.7374,-3.7393,-3.7449,-3.7482,-3.7472,-3.7508,-3.7549,-3.7593,-3.7648,-3.7692,-3.7786,-3.7795,-3.7845,-3.7833,-3.7908,-3.784,-3.7842,-3.7833,-3.7829,-3.7834,-3.7921,-3.7923,-3.7925,-3.7926,0,-3.7424,-3.7422,-3.7471,-3.752,-3.756,-3.7598,-3.7633,-3.7662,-3.7656,-3.7697,-3.7756,-3.779,-3.7856,-3.7911,-3.7958,-3.7974,-3.7949,-3.7947,-3.7965,-3.7969,-3.7967,-3.7968,-3.7746,-3.7942,-3.794,-3.7939,-3.7938,-3.7938,-3.7551,-3.7602,-3.7632,-3.7687,-3.7712,-3.7745,-3.7792,-3.7802,-3.7851,-3.7905,-3.7896,-3.7961,-3.7991,-3.8051,-3.8072,-3.8122,-3.8095,-3.8121,-3.8128,-3.8134,-3.8141,-3.796,-3.813,-3.813,-3.813,-3.8129,-3.8129,0,-3.7725,-3.7743,-3.7793,-3.7843,-3.7886,-3.7858,-3.7895,-3.7932,-3.7991,-3.802,-3.8064,-3.813,-3.8182,-3.8196,-3.8246,-3.8283,-3.8273,-3.8297,-3.8294,-3.8297,-3.8162,-3.8141,-3.8304,-3.8304,-3.8304,-3.8304,-3.8304,-3.8304,-3.7821,-3.7904,-3.7904,-3.7999,-3.8015,-3.8079,-3.8102,-3.8132,-3.8155,-3.8231,-3.8274,-3.8283,-3.8306,-3.8357,-3.8403,-3.8406,-3.8425,-3.8453,-3.8451,-3.8325,-3.8307,-3.829,-3.8271,-3.8458,-3.8458,-3.8582,-3.8583,-3.8584]}]]